EHI
0 0 0 0 0 0 0 0 0 0 0 0 0 0 0 0 0 0 0 0 0 0 0 0 0 0 0 0 0 0 0 0 0 0 0 0 0 0 0 0 0 0 0
0 0 0 0 0 0 0 0 0 0 0 0 0 0 0 0 0 0 0 0 0 0 0 0 0 0 0 0 0 0 0 0 0 0 0 0 0 0 0 0 0 0 0
0 0 0 0 0 0 0 0 0 0 0 0 0 0 0 0 0 0 0 0 0 0 0 0 0 0 0 0 0 0 0 0 0 0 0 0 0 0 0 0 0 0 0
0 0 0 0 0 0 0 0 0 0 0 0 0 0 0 0 0 0 0 0 0 0 0 0 0 0 0 0 0 0 0 0 0 0 0 0 0 0 0 0 0 0 0
0 0 0 0 0 0 0 0 0 0 0 0 0 0 0 0 0 0 0 0 0 0 0 0 0 0 0 0 0 0 0 0 0 0 0 0 0 0 0 0 0 0 0
0 0 0 0 0 0 0 0 0 0 0 0 0 0 0 0 0 0 0 0 0 0 0 0 0 0 0 0 0 0 0 0 0 0 0 0 0 0 0 0 0 0 0
0 0 0 0 0 0 0 0 0 0 0 0 0 0 0 0 0 0 0 0 0 0 0 0 0 0 0 0 0 0 0 0 0 0 0 0 0 0 0 0 0 0 0
0 0 0 0 0 0 0 0 0 0 0 0 0 0 0 0 0 0 0 0 0 0 0 0 0 0 0 0 0 0 0 0 0 0 0 0 0 0 0 0 0 0 0
0 0 0 0 0 0 0 0 0 0 0 0 0 0 0 0 0 0 0 0 0 0 0 0 0 0 0 0 0 0 0 0 0 0 0 0 0 0 0 0 0 0 0
0 0 0 0 0 0 0 0 0 0 0 0 0 0 0 0 0 0 0 0 0 0 0 0 0 0 0 0 0 0 0 0 0 0 0 0 0 0 0 0 0 0 0
0 0 0 0 0 0 0 0 0 0 0 0 0 0 0 0 0 0 0 0 0 0 0 0 0 0 0 0 0 0 0 0 0 0 0 0 0 0 0 0 0 0 0
0 0 0 0 0 0 0 0 0 0 0 0 0 0 0 0 0 0 0 0 0 0 0 0 0 0 0 0 0 0 0 0 0 0 0 0 0 0 0 0 0 0 0
0 0 0 0 0 0 0 0 0 0 0 0 0 0 0 0 0 0 0 0 0 0 0 0 0 0 0 0 0 0 0 0 0 0 0 0 0 0 0 0 0 0 0
0 0 0 0 0 0 0 0 0 0 0 0 0 0 0 0 0 0 0 0 0 0 0 0 0 0 0 0 0 0 0 0 0 0 0 0 0 0 0 0 0 0 0
0 0 0 0 0 0 0 0 0 0 0 0 0 0 0 0 0 0 0 0 0 0 0 0 0 0 0 0 0 0 0 0 0 0 0 0 0 0 0 0 0 0 0
0 0 0 0 0 0 0 0 0 0 0 0 0 0 0 0 0 0 0 0 0 0 0 0 0 0 0 0 0 0 0 0 0 0 0 0 0 0 0 0 0 0 0
0 0 0 0 0 0 0 0 0 0 0 0 0 0 0 0 0 0 0 0 0 0 0 0 0 0 0 0 0 0 0 0 0 0 0 0 0 0 0 0 0 0 0
0 0 0 0 0 0 0 0 0 0 0 0 0 0 0 0 0 0 0 0 0 0 0 0 0 0 0 0 0 0 0 0 0 0 0 0 0 0 0 0 0 0 0
0 0 0 0 0 0 0 0 0 0 0 0 0 0 0 0 0 0 0 0 0 0 0 0 0 0 0 0 0 0 0 0 0 0 0 0 0 0 0 0 0 0 0
0 0 0 0 0 0 0 0 0 0 0 0 0 0 0 0 0 0 0 0 0 0 0 0 0 0 0 0 0 0 0 0 0 0 0 0 0 0 0 0 0 0 0
0 0 0 0 0 0 0 0 0 0 0 0 0 0 0 0 0 0 0 0 0 0 0 0 0 0 0 0 0 0 0 0 0 0 0 0 0 0 0 0 0 0 0
0 0 0 0 0 0 0 0 0 0 0 0 0 0 0 0 0 0 0 0 0 0 0 0 0 0 0 0 0 0 0 0 0 0 0 0 0 0 0 0 0 0 0
0 0 0 0 0 0 0 0 0 0 0 0 0 0 0 0 0 0 0 0 0 0 0 0 0 0 0 0 0 0 0 0 0 0 0 0 0 0 0 0 0 0 0
0 0 0 0 0 0 0 0 0 0 0 0 0 0 0 0 0 0 0 0 0 0 0 0 0 0 0 0 0 0 0 0 0 0 0 0 0 0 0 0 0 0 0
0 0 0 0 0 0 0 0 0 0 0 0 0 0 0 0 0 0 0 0 0 0 0 0 0 0 0 0 0 0 0 0 0 0 0 0 0 0 0 0 0 0 0
0 0 0 0 0 0 0 0 0 0 0 0 0 0 0 0 0 0 0 0 0 0 0 0 0 0 0 0 0 0 0 0 0 0 0 0 0 0 0 0 0 0 0
Wind_Speed
3 3 4 5 5 5 6 5 5 4 4 3 2 2 1 1 1 1 1 1 2 2 2 2 3 2 3 4 4 3 4 4 2 3 5 5 7 7 7 6 6 7 8
4 4 4 4 4 4 4 4 5 4 4 3 2 2 1 0 0 1 2 2 2 3 2 3 3 3 3 4 4 3 3 3 2 2 4 5 5 4 5 4 5 7 6
9 6 5 4 4 4 3 4 4 4 4 4 3 3 3 2 2 2 2 3 3 3 3 3 3 3 3 3 4 4 4 4 3 3 3 4 5 5 4 5 5 5 5
8 7 6 5 4 3 3 4 4 4 4 4 3 3 2 0 1 1 2 4 3 4 4 4 3 3 3 4 4 4 3 4 4 3 4 6 5 6 6 3 4 5 6
11 10 8 7 5 4 4 4 4 3 3 3 4 3 2 1 1 1 3 3 3 4 4 4 3 4 3 4 5 5 5 4 5 4 4 5 5 6 8 10 5 5 5
9 8 7 6 5 4 3 3 4 3 2 3 3 3 2 1 1 2 3 3 3 3 4 4 4 4 4 5 6 6 6 6 6 6 5 5 5 5 6 10 9 8 6
11 10 9 8 6 6 5 4 4 2 2 2 2 2 2 2 2 2 3 3 3 3 5 4 4 4 5 6 6 6 6 6 7 7 6 6 7 6 7 10 11 10 6
10 11 11 10 8 7 6 5 4 3 2 2 1 1 1 1 2 3 3 3 3 4 5 5 5 6 6 6 6 5 7 6 7 8 8 7 7 6 7 7 10 13 10
11 11 10 9 8 8 7 6 5 3 3 2 2 1 1 1 2 3 3 3 4 4 5 5 6 6 7 7 7 6 7 7 7 7 8 7 7 6 7 7 7 9 15
10 10 10 9 8 7 6 5 5 4 3 2 2 1 2 2 3 3 4 5 5 5 6 6 6 7 7 7 7 6 7 8 8 7 8 8 7 6 6 6 7 7 11
13 11 9 8 7 6 5 5 4 3 3 2 2 2 2 3 3 4 5 5 5 6 6 7 7 8 8 8 7 8 8 9 9 8 9 10 9 7 6 6 7 7 8
10 9 8 7 6 6 5 5 4 3 3 3 2 2 3 3 4 5 6 6 7 7 7 7 8 8 9 8 8 10 9 10 10 10 9 10 9 9 7 7 8 8 8
8 7 7 7 7 6 5 4 4 4 3 2 2 3 4 4 5 6 7 7 7 7 7 8 8 9 9 9 9 10 10 10 10 10 10 10 10 10 8 9 9 8 10
8 8 7 7 6 6 5 4 4 3 3 2 3 4 5 6 6 7 7 7 7 7 8 8 9 9 10 10 10 10 10 10 10 10 10 10 10 11 10 10 10 10 10
8 9 8 6 5 5 4 4 3 3 3 3 3 5 6 6 6 7 7 7 7 8 8 9 9 9 9 9 10 10 10 10 10 10 10 10 14 18 16 13 10 9 9
8 8 7 7 6 6 5 4 3 3 2 3 5 5 6 6 7 7 7 7 8 8 8 9 9 10 10 18 24 20 10 9 9 10 9 10 13 17 23 25 24 20 14
8 8 8 7 6 6 5 4 4 2 2 4 5 5 6 7 7 7 7 8 8 8 9 9 9 10 13 22 25 25 16 10 9 9 9 10 11 17 10 17 22 21 24
7 7 6 5 4 4 3 3 2 2 3 4 5 6 6 7 7 7 8 8 8 8 9 9 10 10 13 23 25 26 15 9 9 9 10 11 11 11 14 12 12 12 13
6 5 5 4 4 3 3 2 2 2 3 5 6 7 7 7 7 8 9 8 8 8 9 9 10 10 13 22 25 25 10 9 10 10 10 11 11 18 24 16 12 12 11
5 5 4 3 3 2 2 2 3 3 5 6 7 7 7 7 8 9 9 8 8 9 9 10 9 11 11 19 24 24 8 9 9 9 9 17 18 22 24 14 11 14 12
4 4 4 3 2 2 1 2 3 5 6 6 6 7 7 8 9 8 8 8 9 9 9 11 10 10 12 17 22 24 11 9 10 9 8 8 21 24 25 22 12 16 16
3 3 3 2 2 2 1 3 5 6 6 6 7 8 8 8 8 8 9 8 9 10 10 10 11 8 9 14 18 24 23 21 12 10 8 10 22 25 25 19 18 23 19
3 2 2 2 2 2 2 4 6 6 6 6 8 8 9 8 8 8 9 9 8 8 9 9 10 9 7 10 21 24 25 25 15 11 19 23 26 24 15 17 21 17 7
2 2 1 2 3 4 4 5 6 6 6 7 8 8 8 8 8 7 7 8 8 8 9 10 10 10 9 7 7 9 11 16 14 12 16 22 22 17 15 14 11 6 7
1 2 2 3 5 5 6 6 6 6 7 8 8 8 8 8 8 8 7 9 8 10 12 10 9 11 11 13 22 18 11 10 11 13 9 7 6 6 6 6 6 6 6
2 2 3 4 6 6 7 7 6 6 7 8 8 7 7 7 7 9 10 14 17 22 24 23 21 15 20 26 27 26 26 26 25 16 8 7 7 8 8 7 7 6 6
Wind_Direction
150 108 91 89 87 85 91 94 101 104 107 101 105 100 82 29 11 339 315 304 300 300 289 282 287 284 270 267 269 270 277 277 274 294 293 277 262 258 257 256 262 267 268
150 130 109 94 96 104 101 103 109 111 110 113 118 122 120 86 308 320 330 319 312 305 294 283 282 283 281 288 283 271 278 279 262 262 304 307 310 292 267 266 262 264 269
165 158 141 127 118 121 129 124 119 113 108 108 96 71 53 27 6 345 326 317 314 306 296 285 278 278 266 272 276 268 258 274 277 215 233 282 284 305 269 253 253 260 267
164 161 156 151 150 153 138 126 122 115 112 110 109 112 119 169 263 280 298 312 318 311 300 290 284 279 273 272 273 267 251 252 271 267 229 235 256 281 296 272 271 271 266
171 167 166 162 157 151 139 131 120 111 109 107 117 116 121 203 281 312 321 320 319 317 310 300 292 285 278 274 275 277 265 247 251 255 256 257 255 241 266 284 276 266 254
172 165 160 152 148 146 139 135 127 121 118 114 117 129 148 221 307 315 316 314 311 311 311 305 293 285 280 276 274 270 268 261 257 255 248 249 253 255 257 276 282 277 264
170 165 163 165 163 162 161 155 147 151 147 132 137 162 187 212 246 273 285 298 304 303 301 304 296 289 282 279 277 275 272 267 263 260 258 252 252 252 259 273 284 283 273
177 175 175 172 171 171 170 167 166 170 172 163 182 197 208 218 248 262 268 276 278 282 289 295 293 289 287 286 281 277 271 270 263 266 264 263 260 255 254 261 280 290 286
183 181 177 174 174 175 177 175 171 173 183 185 189 217 238 245 264 277 279 278 279 286 293 294 292 290 288 285 284 277 275 273 267 264 264 265 264 258 258 257 256 275 290
186 184 181 179 177 177 173 171 170 177 185 190 202 216 248 263 271 282 288 287 287 288 294 293 289 288 286 283 281 279 276 275 272 267 266 265 265 262 258 256 258 256 273
189 186 183 179 172 166 165 169 174 173 187 203 216 237 266 276 282 281 281 282 283 285 286 286 286 286 286 283 280 278 280 277 275 273 272 270 267 266 262 259 259 261 264
187 181 174 166 166 168 170 174 178 185 200 206 217 244 265 279 284 282 282 281 281 282 281 284 284 285 285 281 279 280 282 277 277 275 273 273 273 268 264 261 262 264 262
176 169 166 170 174 175 176 180 185 194 202 205 225 258 274 278 278 279 280 281 281 283 284 284 283 283 283 281 277 275 276 273 271 271 270 271 270 271 267 264 266 266 268
175 171 173 176 176 176 178 182 193 197 204 213 238 261 268 270 272 275 278 279 279 281 282 281 279 280 282 282 279 276 274 270 269 268 266 267 265 266 267 269 265 266 268
177 178 177 175 173 175 181 185 198 210 211 227 252 262 268 272 275 277 278 279 279 280 279 282 283 282 285 283 283 281 274 271 272 271 267 265 271 276 280 280 273 269 270
184 178 171 170 176 181 186 194 210 222 221 240 258 268 275 278 278 279 280 281 281 280 280 281 282 283 287 298 303 302 289 278 277 278 273 272 280 283 287 289 290 287 283
179 175 175 178 182 187 188 198 214 227 239 255 268 274 277 280 280 283 285 283 282 280 281 280 280 280 284 298 304 304 301 289 281 278 278 283 281 291 282 284 286 286 283
172 171 168 171 178 179 185 193 212 233 251 266 273 276 279 280 282 283 281 281 280 280 281 282 281 280 286 299 306 307 302 286 278 274 273 273 274 275 281 272 270 266 269
164 163 163 161 160 171 179 182 241 257 266 271 275 278 278 281 283 283 282 282 284 285 282 282 282 282 288 299 305 305 293 284 280 276 273 275 273 279 288 287 279 278 273
136 139 138 134 149 179 170 190 254 265 268 270 273 276 276 276 280 280 281 281 283 284 287 287 282 281 282 294 303 305 293 287 284 278 272 280 283 286 289 285 279 280 278
130 130 131 145 183 193 180 239 263 263 265 271 276 277 276 276 277 278 278 283 287 289 288 288 285 280 282 294 301 303 300 287 286 285 280 273 286 289 290 289 283 282 288
129 134 140 181 227 219 213 255 265 266 271 276 278 280 280 282 289 284 285 285 287 290 290 291 291 283 282 291 298 302 302 301 296 290 284 279 289 289 291 292 289 293 299
150 151 161 214 267 260 239 257 269 275 279 280 280 282 284 281 280 281 287 290 286 287 290 291 292 292 283 285 299 302 303 302 299 288 290 294 296 297 295 291 294 297 293
168 166 177 244 274 275 269 260 272 277 278 280 283 284 285 286 282 280 281 284 286 286 287 290 292 293 291 284 284 283 290 296 296 293 291 295 294 290 287 290 291 279 268
197 197 222 251 266 275 276 275 275 277 279 281 283 285 282 283 287 282 276 282 272 277 289 288 287 293 295 293 300 303 299 295 290 300 293 287 284 274 271 271 269 266 270
218 245 257 263 270 274 276 278 276 274 278 286 285 283 284 285 286 289 292 287 288 294 295 296 296 294 294 301 305 307 308 309 308 310 300 296 290 286 283 281 278 272 270